| time (UTC) | temp C | wind direction | speed KPH | gust KPH | rain 1hr cm | rain 24hr cm | rain mn cm | humidity % | barometer mb |
| 20260505230345 | 23 | 248 | 6.4 | 6.4 | 0.00 | 0.00 | 0.00 | 49 | 1011.5 |
| 20260505225114 | 24 | 23 | 4.8 | 6.4 | 0.00 | 0.00 | 0.00 | 46 | 1011.5 |
| 20260505224513 | 24 | 45 | 4.8 | 6.4 | 0.00 | 0.00 | 0.00 | 46 | 1011.5 |
| 20260505223921 | 24 | 270 | 3.2 | 11.3 | 0.00 | 0.00 | 0.00 | 46 | 1011.5 |
| 20260505223312 | 24 | 270 | 3.2 | 6.4 | 0.00 | 0.00 | 0.00 | 45 | 1011.5 |
| 20260505222747 | 25 | 270 | 6.4 | 6.4 | 0.00 | 0.00 | 0.00 | 45 | 1011.5 |
| 20260505222114 | 25 | 225 | 3.2 | 9.7 | 0.00 | 0.00 | 0.00 | 45 | 1011.5 |
| 20260505221516 | 25 | 158 | 3.2 | 6.4 | 0.00 | 0.00 | 0.00 | 46 | 1011.5 |
| 20260505220313 | 26 | 270 | 1.6 | 4.8 | 0.00 | 0.00 | 0.00 | 46 | 1011.8 |
| 20260505215741 | 27 | 270 | 1.6 | 3.2 | 0.00 | 0.00 | 0.00 | 44 | 1011.5 |
| 20260505215149 | 27 | 203 | 3.2 | 8.0 | 0.00 | 0.00 | 0.00 | 45 | 1011.8 |
| 20260505214545 | 26 | 248 | 4.8 | 6.4 | 0.00 | 0.00 | 0.00 | 45 | 1011.5 |
| 20260505213941 | 27 | 203 | 8.0 | 8.0 | 0.00 | 0.00 | 0.00 | 45 | 1011.8 |
| 20260505213316 | 26 | 338 | 6.4 | 6.4 | 0.00 | 0.00 | 0.00 | 46 | 1011.5 |
| 20260505212742 | 26 | 68 | 4.8 | 6.4 | 0.00 | 0.00 | 0.00 | 46 | 1011.5 |
| 20260505212125 | 26 | 270 | 3.2 | 6.4 | 0.00 | 0.00 | 0.00 | 47 | 1011.5 |
| 20260505211527 | 26 | 23 | 1.6 | 8.0 | 0.00 | 0.00 | 0.00 | 47 | 1011.5 |
| 20260505210344 | 26 | 113 | 4.8 | 9.7 | 0.00 | 0.00 | 0.00 | 47 | 1011.8 |
| 20260505205752 | 26 | 23 | 4.8 | 4.8 | 0.00 | 0.00 | 0.00 | 45 | 1011.8 |
| 20260505205138 | 27 | 23 | 4.8 | 4.8 | 0.00 | 0.00 | 0.00 | 46 | 1012.1 |
| 20260505204543 | 27 | 23 | 4.8 | 4.8 | 0.00 | 0.00 | 0.00 | 46 | 1012.1 |
| 20260505203317 | 27 | 225 | 8.0 | 8.0 | 0.00 | 0.00 | 0.00 | 46 | 1012.1 |
| 20260505202754 | 27 | 113 | 3.2 | 4.8 | 0.00 | 0.00 | 0.00 | 46 | 1012.1 |
| 20260505202112 | 26 | 158 | 3.2 | 8.0 | 0.00 | 0.00 | 0.00 | 48 | 1012.5 |
| 20260505201533 | 26 | 45 | 8.0 | 8.0 | 0.00 | 0.00 | 0.00 | 47 | 1012.1 |
| 20260505200940 | 26 | 270 | 6.4 | 9.7 | 0.00 | 0.00 | 0.00 | 47 | 1012.5 |
| 20260505195709 | 25 | 158 | 4.8 | 4.8 | 0.00 | 0.00 | 0.00 | 48 | 1012.5 |
| 20260505194543 | 25 | 203 | 4.8 | 11.3 | 0.00 | 0.00 | 0.00 | 48 | 1012.8 |
| 20260505193940 | 26 | 113 | 4.8 | 6.4 | 0.00 | 0.00 | 0.00 | 48 | 1012.8 |
| 20260505193332 | 25 | 315 | 3.2 | 8.0 | 0.00 | 0.00 | 0.00 | 47 | 1013.2 |
| 20260505192115 | 26 | 270 | 4.8 | 14.5 | 0.00 | 0.00 | 0.00 | 47 | 1013.2 |
| 20260505190932 | 26 | 158 | 6.4 | 8.0 | 0.00 | 0.00 | 0.00 | 46 | 1013.5 |
| 20260505190336 | 26 | 0 | 8.0 | 9.7 | 0.00 | 0.00 | 0.00 | 45 | 1013.2 |
| 20260505185752 | 26 | 315 | 6.4 | 8.0 | 0.00 | 0.00 | 0.00 | 46 | 1013.2 |
| 20260505185140 | 26 | 23 | 8.0 | 14.5 | 0.00 | 0.00 | 0.00 | 45 | 1013.5 |
| 20260505184551 | 27 | 270 | 8.0 | 11.3 | 0.00 | 0.00 | 0.00 | 45 | 1013.5 |
| 20260505183341 | 27 | 0 | 3.2 | 9.7 | 0.00 | 0.00 | 0.00 | 46 | 1013.8 |
| 20260505181514 | 26 | 180 | 4.8 | 9.7 | 0.00 | 0.00 | 0.00 | 47 | 1014.2 |
| 20260505180926 | 26 | 315 | 6.4 | 9.7 | 0.00 | 0.00 | 0.00 | 48 | 1013.8 |
| 20260505180313 | 25 | 45 | 3.2 | 9.7 | 0.00 | 0.00 | 0.00 | 48 | 1013.8 |
| 20260505175713 | 25 | 270 | 4.8 | 4.8 | 0.00 | 0.00 | 0.00 | 48 | 1014.2 |
| 20260505175125 | 25 | 248 | 8.0 | 8.0 | 0.00 | 0.00 | 0.00 | 49 | 1014.2 |
| 20260505174525 | 25 | 113 | 3.2 | 11.3 | 0.00 | 0.00 | 0.00 | 49 | 1014.5 |
| 20260505173933 | 25 | 270 | 6.4 | 14.5 | 0.00 | 0.00 | 0.00 | 49 | 1014.5 |
| 20260505173350 | 25 | 315 | 6.4 | 12.9 | 0.00 | 0.00 | 0.00 | 50 | 1014.5 |
| 20260505172720 | 25 | 203 | 3.2 | 3.2 | 0.00 | 0.00 | 0.00 | 51 | 1014.5 |
| 20260505172131 | 24 | 90 | 9.7 | 11.3 | 0.00 | 0.00 | 0.00 | 51 | 1014.5 |
| 20260505171517 | 24 | 203 | 4.8 | 9.7 | 0.00 | 0.00 | 0.00 | 52 | 1014.5 |
| 20260505170939 | 24 | 180 | 9.7 | 9.7 | 0.00 | 0.00 | 0.00 | 51 | 1014.5 |
| 20260505170328 | 24 | 225 | 11.3 | 11.3 | 0.00 | 0.00 | 0.00 | 51 | 1014.5 |
| 20260505165708 | 25 | 338 | 4.8 | 4.8 | 0.00 | 0.00 | 0.00 | 51 | 1014.5 |
| 20260505165110 | 25 | 203 | 4.8 | 16.1 | 0.00 | 0.00 | 0.00 | 50 | 1014.5 |
| 20260505164512 | 25 | 135 | 8.0 | 14.5 | 0.00 | 0.00 | 0.00 | 50 | 1014.5 |
| 20260505163952 | 25 | 248 | 14.5 | 16.1 | 0.00 | 0.00 | 0.00 | 50 | 1014.5 |
| 20260505163316 | 24 | 158 | 6.4 | 12.9 | 0.00 | 0.00 | 0.00 | 51 | 1014.9 |
| 20260505162718 | 25 | 203 | 8.0 | 8.0 | 0.00 | 0.00 | 0.00 | 50 | 1014.5 |
| 20260505162148 | 25 | 293 | 6.4 | 11.3 | 0.00 | 0.00 | 0.00 | 50 | 1014.9 |
| 20260505161535 | 25 | 203 | 9.7 | 16.1 | 0.00 | 0.00 | 0.00 | 51 | 1014.9 |
| 20260505160921 | 25 | 180 | 6.4 | 9.7 | 0.00 | 0.00 | 0.00 | 50 | 1014.9 |
| 20260505160344 | 25 | 45 | 3.2 | 8.0 | 0.00 | 0.00 | 0.00 | 50 | 1014.9 |
| 20260505153319 | 25 | 158 | 3.2 | 4.8 | 0.00 | 0.00 | 0.00 | 50 | 1014.9 |
| 20260505152748 | 25 | 45 | 3.2 | 6.4 | 0.00 | 0.00 | 0.00 | 53 | 1014.9 |
| 20260505152114 | 25 | 158 | 11.3 | 12.9 | 0.00 | 0.00 | 0.00 | 52 | 1014.9 |
| 20260505151546 | 25 | 315 | 3.2 | 11.3 | 0.00 | 0.00 | 0.00 | 51 | 1014.9 |
| 20260505150942 | 25 | 270 | 3.2 | 12.9 | 0.00 | 0.00 | 0.00 | 52 | 1014.9 |
| 20260505150331 | 25 | 225 | 8.0 | 17.7 | 0.00 | 0.00 | 0.00 | 51 | 1015.2 |
| 20260505140322 | 23 | 45 | 9.7 | 9.7 | 0.00 | 0.00 | 0.00 | 56 | 1015.2 |
| 20260505124537 | 16 | 68 | 3.2 | 3.2 | 0.00 | 0.00 | 0.00 | 89 | 1015.5 |
| 20260505123916 | 15 | 180 | 3.2 | 3.2 | 0.00 | 0.00 | 0.00 | 90 | 1015.5 |
| 20260505123326 | 14 | 203 | 3.2 | 3.2 | 0.00 | 0.00 | 0.00 | 92 | 1015.5 |
| 20260505122715 | 13 | 180 | 6.4 | 6.4 | 0.00 | 0.00 | 0.00 | 95 | 1015.5 |
| 20260505122122 | 13 | 248 | 3.2 | 4.8 | 0.00 | 0.00 | 0.00 | 96 | 1015.5 |
| 20260505120935 | 13 | 158 | 1.6 | 1.6 | 0.00 | 0.00 | 0.00 | 98 | 1015.2 |
| 20260505120316 | 12 | 225 | 0.0 | 0.0 | 0.00 | 0.00 | 0.00 | 99 | 1015.2 |
| 20260505115721 | 12 | 0 | 3.2 | 3.2 | 0.00 | 0.00 | 0.00 | 99 | 1015.2 |
| 20260505115152 | 11 | 113 | 1.6 | 3.2 | 0.00 | 0.00 | 0.00 | 99 | 1014.9 |
| 20260505114514 | 11 | 180 | 0.0 | 1.6 | 0.00 | 0.00 | 0.00 | 99 | 1014.9 |
| 20260505113925 | 11 | 338 | 1.6 | 6.4 | 0.00 | 0.00 | 0.00 | 99 | 1014.9 |
| 20260505113317 | 10 | 180 | 3.2 | 3.2 | 0.00 | 0.00 | 0.00 | 99 | 1014.9 |
| 20260505112135 | 10 | 270 | 0.0 | 3.2 | 0.00 | 0.00 | 0.00 | 99 | 1014.9 |
| 20260505111538 | 10 | 248 | 3.2 | 6.4 | 0.00 | 0.00 | 0.00 | 99 | 1014.9 |
| 20260505110926 | 10 | 180 | 0.0 | 0.0 | 0.00 | 0.00 | 0.00 | 99 | 1014.9 |
| 20260505110324 | 10 | 203 | 3.2 | 4.8 | 0.00 | 0.00 | 0.00 | 99 | 1014.9 |
| 20260505101527 | 9 | 203 | 3.2 | 4.8 | 0.00 | 0.00 | 0.00 | 99 | 1014.2 |
| 20260505100942 | 9 | 203 | 1.6 | 3.2 | 0.00 | 0.00 | 0.00 | 99 | 1014.2 |
| 20260505100313 | 9 | 225 | 3.2 | 3.2 | 0.00 | 0.00 | 0.00 | 99 | 1014.2 |
| 20260505095740 | 9 | 158 | 1.6 | 1.6 | 0.00 | 0.00 | 0.00 | 99 | 1014.2 |
| 20260505095146 | 9 | 270 | 0.0 | 4.8 | 0.00 | 0.00 | 0.00 | 99 | 1014.2 |
| 20260505094528 | 9 | 270 | 1.6 | 3.2 | 0.00 | 0.00 | 0.00 | 99 | 1013.8 |
| 20260505093910 | 9 | 248 | 0.0 | 1.6 | 0.00 | 0.00 | 0.00 | 99 | 1013.8 |
| 20260505093331 | 9 | 270 | 1.6 | 3.2 | 0.00 | 0.00 | 0.00 | 99 | 1013.8 |
| 20260505092734 | 10 | 203 | 0.0 | 0.0 | 0.00 | 0.00 | 0.00 | 99 | 1013.8 |
| 20260505092112 | 10 | 180 | 3.2 | 3.2 | 0.00 | 0.00 | 0.00 | 99 | 1013.8 |
| 20260505091543 | 10 | 248 | 3.2 | 4.8 | 0.00 | 0.00 | 0.00 | 99 | 1013.8 |
| 20260505090932 | 10 | 158 | 0.0 | 3.2 | 0.00 | 0.00 | 0.00 | 99 | 1013.8 |
| 20260505090330 | 10 | 203 | 3.2 | 4.8 | 0.00 | 0.00 | 0.00 | 99 | 1013.8 |
| 20260505085725 | 10 | 203 | 3.2 | 3.2 | 0.00 | 0.00 | 0.00 | 99 | 1013.8 |
| 20260505085123 | 10 | 338 | 0.0 | 3.2 | 0.00 | 0.00 | 0.00 | 99 | 1013.8 |
| 20260505084548 | 10 | 158 | 3.2 | 3.2 | 0.00 | 0.00 | 0.00 | 99 | 1013.8 |
| 20260505083930 | 10 | 225 | 1.6 | 6.4 | 0.00 | 0.00 | 0.00 | 99 | 1013.5 |
| 20260505082713 | 10 | 158 | 0.0 | 0.0 | 0.00 | 0.00 | 0.00 | 99 | 1013.5 |
| 20260505081509 | 10 | 225 | 3.2 | 4.8 | 0.00 | 0.00 | 0.00 | 99 | 1013.8 |
| 20260505080952 | 10 | 225 | 3.2 | 4.8 | 0.00 | 0.00 | 0.00 | 99 | 1013.5 |
| 20260505080308 | 10 | 0 | 3.2 | 3.2 | 0.00 | 0.00 | 0.00 | 99 | 1013.5 |
| 20260505075729 | 10 | 180 | 3.2 | 3.2 | 0.00 | 0.00 | 0.00 | 99 | 1013.5 |
| 20260505075111 | 10 | 270 | 1.6 | 6.4 | 0.00 | 0.00 | 0.00 | 99 | 1013.5 |
| 20260505073939 | 10 | 270 | 1.6 | 4.8 | 0.00 | 0.00 | 0.00 | 99 | 1013.5 |
| 20260505073351 | 10 | 45 | 0.0 | 3.2 | 0.00 | 0.00 | 0.00 | 99 | 1013.5 |
| 20260505072150 | 10 | 315 | 0.0 | 4.8 | 0.00 | 0.00 | 0.00 | 99 | 1013.5 |
| 20260505070926 | 10 | 203 | 1.6 | 4.8 | 0.00 | 0.00 | 0.00 | 99 | 1013.5 |
| 20260505070310 | 10 | 293 | 3.2 | 3.2 | 0.00 | 0.00 | 0.00 | 99 | 1013.5 |
| 20260505065740 | 10 | 270 | 0.0 | 0.0 | 0.00 | 0.00 | 0.00 | 99 | 1013.5 |
| 20260505064531 | 11 | 225 | 0.0 | 1.6 | 0.00 | 0.00 | 0.00 | 99 | 1013.5 |
| 20260505063912 | 11 | 203 | 1.6 | 3.2 | 0.00 | 0.00 | 0.00 | 99 | 1013.5 |
| 20260505063352 | 11 | 248 | 3.2 | 3.2 | 0.00 | 0.00 | 0.00 | 99 | 1013.5 |
| 20260505062752 | 11 | 225 | 0.0 | 0.0 | 0.00 | 0.00 | 0.00 | 99 | 1013.5 |
| 20260505062120 | 11 | 225 | 1.6 | 3.2 | 0.00 | 0.00 | 0.00 | 99 | 1013.5 |
| 20260505060932 | 11 | 180 | 3.2 | 3.2 | 0.00 | 0.00 | 0.00 | 99 | 1013.5 |
| 20260505060347 | 11 | 225 | 1.6 | 3.2 | 0.00 | 0.00 | 0.00 | 99 | 1013.5 |
| 20260505055730 | 11 | 225 | 1.6 | 1.6 | 0.00 | 0.00 | 0.00 | 99 | 1013.5 |
| 20260505055120 | 11 | 158 | 0.0 | 3.2 | 0.00 | 0.00 | 0.00 | 99 | 1013.2 |
| 20260505054545 | 11 | 248 | 3.2 | 3.2 | 0.00 | 0.00 | 0.00 | 99 | 1013.2 |
| 20260505053930 | 11 | 180 | 1.6 | 1.6 | 0.00 | 0.00 | 0.00 | 99 | 1013.2 |
| 20260505053309 | 11 | 203 | 1.6 | 4.8 | 0.00 | 0.00 | 0.00 | 99 | 1013.2 |
| 20260505051537 | 12 | 270 | 0.0 | 3.2 | 0.00 | 0.00 | 0.00 | 99 | 1013.2 |
| 20260505050326 | 12 | 180 | 1.6 | 1.6 | 0.00 | 0.00 | 0.00 | 99 | 1013.2 |
| 20260505041526 | 12 | 293 | 0.0 | 1.6 | 0.00 | 0.00 | 0.00 | 99 | 1012.5 |
| 20260505040919 | 12 | 293 | 1.6 | 1.6 | 0.00 | 0.00 | 0.00 | 99 | 1012.5 |
| 20260505035138 | 13 | 248 | 1.6 | 3.2 | 0.00 | 0.00 | 0.00 | 99 | 1012.5 |
| 20260505034556 | 13 | 293 | 0.0 | 1.6 | 0.00 | 0.00 | 0.00 | 99 | 1012.1 |
| 20260505033913 | 13 | 180 | 0.0 | 3.2 | 0.00 | 0.00 | 0.00 | 99 | 1012.5 |
| 20260505033320 | 13 | 225 | 0.0 | 0.0 | 0.00 | 0.00 | 0.00 | 98 | 1012.5 |
| 20260505032719 | 13 | 180 | 1.6 | 1.6 | 0.00 | 0.00 | 0.00 | 98 | 1012.1 |
| 20260505032128 | 13 | 158 | 0.0 | 1.6 | 0.00 | 0.00 | 0.00 | 98 | 1012.1 |
| 20260505031514 | 13 | 23 | 0.0 | 1.6 | 0.00 | 0.00 | 0.00 | 97 | 1012.1 |
| 20260505030941 | 13 | 270 | 0.0 | 3.2 | 0.00 | 0.00 | 0.00 | 97 | 1012.1 |
| 20260505030344 | 13 | 248 | 1.6 | 3.2 | 0.00 | 0.00 | 0.00 | 97 | 1012.1 |
| 20260505025743 | 13 | 225 | 1.6 | 1.6 | 0.00 | 0.00 | 0.00 | 96 | 1012.1 |
| 20260505025129 | 14 | 225 | 0.0 | 1.6 | 0.00 | 0.00 | 0.00 | 95 | 1012.1 |
| 20260505024538 | 14 | 180 | 0.0 | 1.6 | 0.00 | 0.00 | 0.00 | 94 | 1012.1 |
| 20260505022123 | 15 | 135 | 0.0 | 3.2 | 0.00 | 0.00 | 0.00 | 91 | 1012.1 |
| 20260505021512 | 15 | 248 | 3.2 | 3.2 | 0.00 | 0.00 | 0.00 | 91 | 1012.1 |
| 20260505020926 | 15 | 270 | 0.0 | 1.6 | 0.00 | 0.00 | 0.00 | 91 | 1012.1 |
| 20260505020317 | 15 | 248 | 0.0 | 0.0 | 0.00 | 0.00 | 0.00 | 91 | 1012.1 |
| 20260505015154 | 16 | 248 | 1.6 | 1.6 | 0.00 | 0.00 | 0.00 | 88 | 1012.1 |
| 20260505014530 | 16 | 203 | 1.6 | 3.2 | 0.00 | 0.00 | 0.00 | 88 | 1012.1 |
| 20260505013918 | 16 | 180 | 1.6 | 3.2 | 0.00 | 0.00 | 0.00 | 87 | 1012.1 |
| 20260505013318 | 16 | 180 | 0.0 | 3.2 | 0.00 | 0.00 | 0.00 | 86 | 1012.1 |
| 20260505012711 | 16 | 270 | 0.0 | 0.0 | 0.00 | 0.00 | 0.00 | 84 | 1012.1 |
| 20260505012147 | 17 | 203 | 1.6 | 3.2 | 0.00 | 0.00 | 0.00 | 84 | 1012.1 |
| 20260505011536 | 17 | 180 | 1.6 | 3.2 | 0.00 | 0.00 | 0.00 | 82 | 1011.8 |
| 20260505010914 | 17 | 225 | 0.0 | 1.6 | 0.00 | 0.00 | 0.00 | 81 | 1011.8 |
| 20260505010331 | 17 | 225 | 0.0 | 3.2 | 0.00 | 0.00 | 0.00 | 80 | 1011.8 |
| 20260505005751 | 18 | 225 | 0.0 | 0.0 | 0.00 | 0.00 | 0.00 | 79 | 1011.8 |
| 20260505005121 | 18 | 180 | 3.2 | 3.2 | 0.00 | 0.00 | 0.00 | 78 | 1011.8 |
| 20260505004534 | 18 | 203 | 3.2 | 3.2 | 0.00 | 0.00 | 0.00 | 77 | 1011.5 |
| 20260505003929 | 19 | 270 | 3.2 | 3.2 | 0.00 | 0.00 | 0.00 | 76 | 1011.5 |
| 20260505003354 | 19 | 203 | 1.6 | 1.6 | 0.00 | 0.00 | 0.00 | 74 | 1011.5 |
| 20260505002111 | 20 | 158 | 4.8 | 4.8 | 0.00 | 0.00 | 0.00 | 72 | 1011.8 |
| 20260505001513 | 21 | 203 | 3.2 | 4.8 | 0.00 | 0.00 | 0.00 | 69 | 1011.8 |
| 20260505000916 | 21 | 180 | 3.2 | 3.2 | 0.00 | 0.00 | 0.00 | 67 | 1011.8 |
| 20260505000318 | 22 | 203 | 4.8 | 4.8 | 0.00 | 0.00 | 0.00 | 61 | 1011.8 |
| 20260504235715 | 22 | 158 | 4.8 | 6.4 | 0.00 | 0.00 | 0.00 | 60 | 1011.5 |
| 20260504234528 | 23 | 90 | 1.6 | 3.2 | 0.00 | 0.00 | 0.00 | 57 | 1011.5 |
| 20260504233933 | 25 | 338 | 3.2 | 6.4 | 0.00 | 0.00 | 0.00 | 51 | 1011.5 |
| 20260504233341 | 25 | 270 | 4.8 | 6.4 | 0.00 | 0.00 | 0.00 | 51 | 1011.5 |
| 20260504232715 | 26 | 180 | 9.7 | 9.7 | 0.00 | 0.00 | 0.00 | 49 | 1011.5 |
| 20260504232153 | 26 | 315 | 6.4 | 6.4 | 0.00 | 0.00 | 0.00 | 48 | 1011.5 |
| 20260504231519 | 26 | 180 | 3.2 | 6.4 | 0.00 | 0.00 | 0.00 | 49 | 1011.5 |
| 20260504230952 | 26 | 315 | 3.2 | 9.7 | 0.00 | 0.00 | 0.00 | 49 | 1011.5 |